Destin, FL

2:16 PM CDT on August 18, 2017 (GMT -0500)
Destin-Fort Walton Beach

Weather History for KDTS - May, 2013

Change the Weather History Date:

Saturday, May 4, 2013

  Actual Average Record
Temperature  
Mean Temperature 60 °F -  
Max Temperature 70 °F 77 °F 84 °F (2002)
Min Temperature 50 °F 63 °F 50 °F (2013)
Degree Days  
Heating Degree Days 5    
Growing Degree Days 10 (Base 50)    
Moisture  
Dew Point 47 °F    
Average Humidity 71    
Maximum Humidity 100    
Minimum Humidity 30    
Precipitation  
Precipitation 0.49 in - - ()
Sea Level Pressure  
Sea Level Pressure 29.87 in    
Wind  
Wind Speed 15 mph (NNW)    
Max Wind Speed 23 mph    
Max Gust Speed 32 mph    
Visibility 8 miles    
Events Rain    
Averages and records for this station are not official NWS values.
T = Trace of Precipitation, MM = Missing Value Source: NWS Daily Summary

Daily Weather History Graph

Daily Weather History Graph

Search for Another Location

Airport or City:

Trip Planner

Search our weather history database for the weather conditions in past years. The results will help you decide how hot, cold, wet, or windy it might be!

Date:

Astronomy

May. 04, 2013 Rise Set
Actual Time 5:59 AM CDT 7:26 PM CDT
Civil Twilight 5:33 AM CDT 7:51 PM CDT
Nautical Twilight 5:03 AM CDT 8:22 PM CDT
Astronomical Twilight 4:31 AM CDT 8:54 PM CDT
Moon 2:35 AM CDT (5/4) 2:43 PM CDT (5/4)
Length of Visible Light 14h 17m
Length of Day
13h 26m
Waning Crescent, 27% of the Moon is Illuminated
May 4
Waning Crescent
May 9
New
May 17
First Quarter
May 24
Full
May 31
Last Quarter

Hourly Weather History & Observations

Time (CDT) Temp. Dew Point Humidity Pressure Visibility Wind Dir Wind Speed Gust Speed Precip Events Conditions
12:07 AM 66.2 °F 62.6 °F 88% 29.82 in 10.0 mi East 10.4 mph 20.7 mph 0.00 in Rain Light Rain
12:14 AM 66.2 °F 62.6 °F 88% 29.81 in 10.0 mi East 11.5 mph - 0.00 in Rain Light Rain
12:44 AM 60.8 °F 57.2 °F 88% 29.83 in 10.0 mi Variable 6.9 mph - 0.00 in   Overcast
12:53 AM 60.1 °F 55.9 °F 86% 29.83 in 6.0 mi NW 15.0 mph 20.7 mph 0.02 in Rain Rain
1:13 AM 55.4 °F 53.6 °F 94% 29.83 in 1.8 mi NW 12.7 mph 23.0 mph 0.15 in Rain Heavy Rain
1:28 AM 55.4 °F 53.6 °F 94% 29.83 in 2.5 mi NW 12.7 mph 19.6 mph 0.24 in Rain Heavy Rain
1:31 AM 55.4 °F 53.6 °F 94% 29.82 in 3.0 mi NW 18.4 mph 25.3 mph 0.25 in Rain Rain
1:51 AM 53.6 °F 53.6 °F 100% 29.83 in 4.0 mi NW 16.1 mph 25.3 mph 0.30 in Rain Rain
1:53 AM 54.0 °F 52.0 °F 93% 29.83 in 4.0 mi NW 10.4 mph 24.2 mph 0.30 in Rain Rain
2:53 AM 52.0 °F 50.0 °F 93% 29.83 in 8.0 mi NNW 21.9 mph 27.6 mph 0.06 in Rain Light Rain
3:53 AM 51.1 °F 48.9 °F 92% 29.83 in 10.0 mi NNW 21.9 mph 27.6 mph 0.01 in Rain Light Rain
4:53 AM 50.0 °F 46.9 °F 89% 29.84 in 10.0 mi NNW 19.6 mph 28.8 mph 0.01 in Rain Light Rain
5:53 AM 50.0 °F 48.0 °F 93% 29.84 in 5.0 mi NNW 16.1 mph - 0.03 in Rain Rain
6:53 AM 50.0 °F 48.0 °F 93% 29.87 in 2.0 mi North 17.3 mph 29.9 mph 0.03 in   Overcast
7:46 AM 50.0 °F 48.2 °F 94% 29.88 in 4.0 mi NNW 19.6 mph 26.5 mph 0.03 in   Overcast
7:53 AM 50.0 °F 48.0 °F 93% 29.88 in 5.0 mi NNW 21.9 mph - 0.03 in Rain Light Rain
8:53 AM 51.1 °F 48.0 °F 89% 29.89 in 10.0 mi North 17.3 mph 24.2 mph 0.00 in   Overcast
9:05 AM 51.8 °F 48.2 °F 88% 29.89 in 10.0 mi North 17.3 mph 27.6 mph N/A   Overcast
9:36 AM 55.4 °F 50.0 °F 82% 29.89 in 10.0 mi NNW 17.3 mph 23.0 mph N/A   Overcast
9:53 AM 55.0 °F 50.0 °F 83% 29.90 in 10.0 mi North 18.4 mph - N/A   Overcast
10:04 AM 55.4 °F 48.2 °F 77% 29.90 in 10.0 mi North 17.3 mph 24.2 mph N/A   Overcast
10:53 AM 59.0 °F 46.0 °F 62% 29.91 in 10.0 mi NNW 23.0 mph 32.2 mph N/A   Mostly Cloudy
11:00 AM 59.0 °F 44.6 °F 59% 29.91 in 10.0 mi North 20.7 mph 31.1 mph N/A   Scattered Clouds
11:53 AM 62.1 °F 44.1 °F 52% 29.90 in 10.0 mi NNW 18.4 mph 27.6 mph N/A   Clear
12:53 PM 66.0 °F 43.0 °F 43% 29.88 in 10.0 mi NNW 19.6 mph 27.6 mph N/A   Clear
1:53 PM 66.9 °F 41.0 °F 39% 29.87 in 10.0 mi NNW 19.6 mph 25.3 mph N/A   Clear
2:53 PM 69.1 °F 36.0 °F 30% 29.87 in 10.0 mi NNW 18.4 mph 25.3 mph N/A   Clear
3:53 PM 70.0 °F 39.0 °F 32% 29.86 in 10.0 mi NNW 16.1 mph 23.0 mph N/A   Clear
4:53 PM 69.1 °F 36.0 °F 30% 29.86 in 10.0 mi NNW 16.1 mph 23.0 mph N/A   Clear
5:53 PM 68.0 °F 36.0 °F 31% 29.86 in 10.0 mi NNW 16.1 mph - N/A   Clear
6:53 PM 66.0 °F 37.0 °F 34% 29.87 in 10.0 mi NNW 13.8 mph - N/A   Clear
7:53 PM 63.0 °F 37.9 °F 40% 29.88 in 10.0 mi North 11.5 mph - N/A   Clear
8:53 PM 61.0 °F 39.9 °F 46% 29.91 in 10.0 mi NNW 8.1 mph - N/A   Clear
9:53 PM 61.0 °F 39.9 °F 46% 29.92 in 10.0 mi NNW 8.1 mph - N/A   Clear
10:53 PM 59.0 °F 41.0 °F 51% 29.93 in 10.0 mi North 5.8 mph - N/A   Clear
11:53 PM 57.9 °F 41.0 °F 53% 29.92 in 10.0 mi North 4.6 mph - N/A   Clear